Find STARLINK-37571

NORAD ID: 70631 Constellation: starlink operational
LEOCIRCULARRETROGRADE

Live-Position

3D-Globus wird geladen...

Über STARLINK-37571

Beschreibung wird geladen...

Nächste Überflüge

Passes for default location (London). Set your location on the main map for personalized predictions.

Höhenverlauf

Loading altitude history...

Zweizeiliger Elementsatz

1 70631C 26101U 26126.30881944 .00373040 00000+0 58277-3 0 1261
2 70631 97.2845 339.8490 0010130 258.1548 331.8323 16.03745774 16
Epoch: 6. Mai 2026 • Age: 18 hours